Regional Weather Roundup
Issued by NWS

Home | Current Version | Previous Version | Graphics & Text | Print | Product List | Glossary On
Versions: 1 2 3 4 5 6 7 8 9 10 11 12 13 14 15 16 17 18 19 20 21 22 23 24 25 26 27 28 29 30 31 32 33 34 35 36 37 38 39 40 41 42 43 44 45 46 47 48 49 50
000
ASUS45 KBOU 102307
RWRCO

WEATHER ROUNDUP FOR COLORADO
NATIONAL WEATHER SERVICE DENVER/BOULDER CO
400 PM MST SAT DEC 10 2016

NOTE: "FAIR" INDICATES FEW OR NO CLOUDS BELOW 12000 FEET WITH NO
SIGNIFICANT WEATHER AND/OR OBSTRUCTIONS TO VISIBILITY.

COZ001>005-013-030-031-110000-
...NORTHWEST COLORADO...

CITY           SKY/WX    TMP DP  RH WIND       PRES   REMARKS
CRAIG          LGT RAIN  43  29  57 SW20      29.87R
HAYDEN         CLOUDY    39  27  60 W14       29.88R
MEEKER         CLOUDY    42  29  59 W15G23    29.91R
MOUNT WERNER   NOT AVBL
STEAMBOAT SPGS CLOUDY    35  31  86 SE6       29.88R WCI  30
WALDEN           N/A     34  28  80 SW5       29.87R WCI  30
$$

COZ006>008-011-110000-
...WEST CENTRAL VALLEYS...

CITY           SKY/WX    TMP DP  RH WIND       PRES   REMARKS
GRAND JUNCTION FAIR      35  25  66 CALM      29.99F
MONTROSE       FAIR      40  27  59 NW7       29.98F
EAGLE          LGT RAIN  36  34  93 CALM      29.97S
RIFLE          CLOUDY    33  25  72 CALM      29.99S
DELTA          NOT AVBL
NUCLA          FAIR      45  30  57 CALM      30.03S
$$

COZ017>023-064>068-110000-
...SOUTHWEST COLORADO...

CITY           SKY/WX    TMP DP  RH WIND       PRES   REMARKS
DURANGO        FAIR      46  25  43 SE8       30.06F
CORTEZ         FAIR      49  29  46 CALM      30.04F
PAGOSA SPRINGS FAIR      46  23  40 SW5       30.08F
TELLURIDE      FAIR      45  12  26 W8G18     30.07S
WOLF CREEK PAS FAIR      27  21  80 SW20G29   30.17S WCI  13
$$

COZ009-010-012-014-032>034-037-058>063-110000-
...CENTRAL COLORADO...

CITY           SKY/WX    TMP DP  RH WIND       PRES   REMARKS
ASPEN          CLOUDY    36  29  75 N6        29.94F
BUENA VISTA    FAIR      44  24  43 W31G40    29.90F
COPPER MTN     CLOUDY    30  23  74 SW16G37   29.99F WCI  19
BERTHOUD PASS  SNOW      21  10  63 MISG      29.92F VSB 1/4
COTTONWOOD PAS CLOUDY    39  25  56 NW14G35   29.95F
GUNNISON       FAIR      28  20  71 CALM      30.02F
KREMMLING      LGT RAIN  41  34  75 W16G23    29.90R
LEADVILLE      LGT SNOW  30  27  88 E3        29.95F FOG
MONARCH PASS   FAIR      27  14  59 W38G49    30.15S WCI   9
SALIDA         FAIR      51  14  23 W21G28    29.97S
SUNLIGHT       MIX PCPN  27  25  93 SW24G39   30.01F VSB 1/2 WCI  12
WILKERSON PASS FAIR      30  21  69 SW14      30.02S WCI  20
$$

COZ069>075-110000-
...SAN LUIS VALLEY/SANGRE DE CRISTO MOUNTAINS...

CITY           SKY/WX    TMP DP  RH WIND       PRES   REMARKS
ALAMOSA        FAIR      47  20  34 NW8       29.96R
LA VETA PASS   FAIR      37  18  44 NE32G48   29.94F
SAGUACHE       FAIR      41  19  42 S7        29.97S
$$

COZ035-036-038>040-110000-
...NORTHERN COLORADO FRONT RANGE...

CITY           SKY/WX    TMP DP  RH WIND       PRES   REMARKS
DENVER INTL AP MOCLDY    52  26  36 VRB3      29.72F
DMNS CITY PARK   N/A     57  26  30 W22G35    29.70F
AURORA         MOCLDY    56  28  33 SW13      29.73S
FRONT RANGE AP NOT AVBL
ERIE MUNI ARPT FAIR      50  32  49 W12G21    29.71F
BOULDER MUN AP FAIR      52  32  46 W20G30    29.67F
CENTENNIAL     MOCLDY    56  26  31 W20G28    29.73F
BROOMFIELD     NOT AVBL
FORT COLLINS   FAIR      36  27  69 E7        29.71F
LONGMONT       NOT AVBL
$$

COZ041-046-047-076>085-087-088-110000-
...PIKES PEAK/PALMER DIVIDE AND SOUTHERN FOOTHILLS...

CITY           SKY/WX    TMP DP  RH WIND       PRES   REMARKS
COLO. SPRINGS  MOCLDY    62  17  17 W7        29.76F
A. F. ACADEMY  FAIR      55  20  26 W36G46    29.73F
SCHRIEVER AFB  NOT AVBL
ELLICOTT       FAIR     N/A N/A N/A MISG      29.76F
FALCON         FAIR      55  19  24 W30G37    29.81F
FORT CARSON    FAIR      63  18  17 W17G25    29.73F
LIMON          FAIR      53  19  26 S6        29.75R
MONUMENT HILL  FAIR      50  23  34 W18G26    29.81S
TRINIDAD       FAIR      63  10  12 W15       29.81S
$$

COZ042>045-048>051-090-091-110000-
...NORTHEAST COLORADO...

CITY           SKY/WX    TMP DP  RH WIND       PRES   REMARKS
GREELEY ARPT   FAIR      30  25  81 E3        29.73F
AKRON          FAIR      34  27  75 S5        29.72F WCI  30
BURLINGTON     FAIR      46  26  45 SE9       29.74F
WRAY           NOT AVBL
STERLING       FAIR      32  27  80 CALM      29.73S
HOLYOKE        FAIR      34  28  80 SE8       29.76S WCI  27
FORT MORGAN    FAIR      30  24  76 SE5       29.73F WCI  25
$$

COZ086-089-092>099-110000-
...SOUTHEAST COLORADO...

CITY           SKY/WX    TMP DP  RH WIND       PRES   REMARKS
PUEBLO         FAIR      57  21  24 CALM      29.72F
LA JUNTA       FAIR      51  22  31 SE8       29.73F
LAMAR          FAIR      51  26  37 SE7       29.72F
SPRINGFIELD      N/A     60  18  19 SW8       29.76F
$$



USA.gov is the U.S. government's official web portal to all federal, state and local government web resources and services.